Theta_e
322 326 327 326 325 323 320 320 322 324 325 324 324 327 327 324 325 325 323 319 317 317 320 319 317 317 316 317 318 313 310 311 311 311 311 312 311 309 309 308 307 307 306 303 304 305 304 305 309 314 314 313 312 312 313 314 314 314 316 316 312 310 313 315 315 315 316 316 313 311 310 309 307 309 310 309 308 309 309 309 311 311 310 310 310 310
320 324 326 327 324 321 321 321 319 320 321 321 321 322 324 324 324 323 321 319 317 318 323 323 318 320 319 318 319 316 311 311 311 311 311 311 311 310 309 308 308 308 305 303 304 304 304 304 307 312 313 312 311 311 312 313 312 311 312 314 311 307 308 311 313 315 315 316 314 312 310 308 306 306 308 308 307 307 308 308 309 309 309 309 307 306
322 324 324 323 321 320 322 322 319 321 320 321 323 322 324 328 327 324 322 319 317 319 325 327 321 321 321 318 319 318 315 312 311 311 311 311 311 310 310 308 309 309 306 304 304 303 304 304 306 309 310 312 312 310 311 311 310 310 310 310 308 308 309 310 312 315 315 313 313 313 310 309 307 304 305 306 304 306 307 306 307 306 305 305 302 301
326 329 325 320 320 321 322 322 321 321 322 324 324 322 326 329 325 325 325 320 318 318 321 324 321 318 317 317 318 318 316 314 312 311 311 312 312 311 310 309 309 308 305 305 304 303 303 303 305 307 307 310 311 309 309 310 309 308 309 309 309 309 311 311 311 313 312 310 309 309 308 307 306 302 302 302 301 303 303 302 302 301 300 299 297 296
326 328 325 321 321 321 322 322 322 322 325 329 327 324 326 326 323 324 325 322 322 324 322 319 322 324 322 319 319 318 317 316 314 313 312 313 315 313 311 309 308 306 305 304 304 303 303 303 304 305 306 309 310 308 309 309 309 308 308 310 311 311 311 311 310 310 311 309 306 304 302 302 301 298 298 299 297 297 298 298 297 296 295 294 293 293
322 321 322 323 322 322 321 322 326 327 325 328 330 327 324 323 324 324 325 325 328 332 326 320 327 336 334 326 322 322 321 320 318 316 313 313 316 316 312 310 308 306 305 304 304 303 303 302 303 304 305 307 309 308 308 309 309 309 308 310 312 312 311 310 309 310 310 310 307 304 301 298 296 294 294 294 293 293 294 293 292 292 292 292 292 292
322 321 321 323 324 325 323 323 328 328 324 326 329 329 325 323 323 323 324 324 331 334 325 321 329 334 329 324 324 324 324 324 322 319 316 314 315 315 312 310 308 306 305 304 303 303 303 302 302 303 304 306 308 307 307 308 308 309 309 309 310 311 310 308 308 307 309 309 306 305 301 297 294 292 290 291 291 291 291 290 290 290 290 291 291 291
322 321 323 324 326 327 325 325 326 324 326 330 329 329 328 324 324 326 324 325 332 333 326 325 327 327 325 324 323 322 323 324 322 320 317 314 314 314 312 309 307 306 304 304 304 303 303 303 302 303 303 305 307 307 306 306 307 308 307 306 307 308 306 306 306 305 306 307 304 301 298 295 293 291 289 289 289 289 289 289 290 290 290 290 290 290
322 323 326 325 324 326 325 327 328 323 325 329 327 328 330 327 330 330 327 328 329 327 328 328 325 325 329 330 326 323 323 324 323 321 318 315 314 313 312 309 307 305 304 303 304 304 303 302 302 303 303 304 306 306 305 305 306 305 306 305 305 305 304 304 304 303 302 304 302 298 295 292 290 289 288 288 288 289 289 289 289 289 289 289 289 289
324 322 323 325 325 326 326 329 330 325 323 325 326 330 333 332 332 330 327 328 328 326 328 328 326 327 329 331 329 325 325 326 323 321 319 316 314 312 310 309 307 306 305 304 303 302 302 302 302 302 303 303 304 305 305 305 305 304 304 304 304 303 303 302 301 300 299 299 299 296 293 290 288 288 288 288 288 288 289 288 288 288 288 288 288 288
320 316 317 323 323 323 325 323 323 325 323 324 328 333 335 333 333 333 329 327 328 328 327 328 327 326 329 334 332 328 330 329 324 322 321 318 315 311 310 308 307 306 304 304 303 301 301 302 302 302 302 302 302 303 304 304 304 304 303 302 302 301 300 300 299 298 297 297 298 296 293 290 288 288 288 288 287 287 288 288 287 287 287 287 288 287
319 318 320 321 319 321 324 320 320 324 323 325 332 333 332 332 332 331 327 325 329 330 329 328 325 323 328 333 330 327 328 325 325 324 323 322 317 311 310 307 306 305 304 304 303 301 300 300 300 300 300 301 301 301 303 303 302 303 302 301 300 299 299 299 299 299 298 296 296 293 291 290 289 288 288 288 287 287 288 287 287 287 287 287 287 287
322 323 323 319 317 321 326 323 322 325 323 325 330 330 328 329 330 330 327 327 328 328 327 324 323 324 326 326 323 324 322 321 324 325 322 323 319 311 309 307 305 304 304 303 303 302 300 298 298 298 299 299 299 300 301 301 301 302 302 300 300 299 298 299 299 298 298 297 294 291 290 289 288 288 288 288 288 288 288 287 287 287 287 287 287 287
326 325 322 320 319 320 323 323 322 323 323 323 325 328 329 328 331 333 331 329 329 329 324 319 322 326 327 326 324 323 322 321 322 324 322 322 319 313 308 306 305 304 303 303 302 301 299 298 298 298 298 297 298 300 300 300 300 301 300 300 299 299 298 298 298 298 297 296 293 290 289 289 288 288 288 288 288 288 288 288 288 287 287 287 287 288
328 328 324 321 321 321 320 320 323 324 321 320 322 326 329 331 336 337 333 332 333 332 323 317 323 330 331 329 323 319 319 319 318 319 318 316 313 311 307 305 305 304 303 302 302 300 298 297 298 297 297 297 298 299 299 299 299 299 299 299 299 298 297 297 298 297 296 295 292 289 289 288 288 289 288 288 288 288 288 288 288 288 288 288 288 288
323 328 328 320 320 321 318 320 323 322 321 320 324 326 327 330 333 332 331 329 327 329 325 321 326 331 328 322 318 316 315 314 314 314 315 313 310 309 307 305 304 303 302 302 301 300 297 296 297 297 297 297 297 298 298 297 297 298 298 298 298 298 297 297 296 296 295 293 290 289 289 289 289 288 288 287 287 288 288 288 288 288 288 288 288 288
324 328 325 317 317 318 318 321 321 322 324 322 322 324 324 326 328 329 330 325 323 327 327 325 327 329 325 321 319 318 315 315 316 313 312 312 309 308 307 304 303 303 302 301 300 299 297 296 296 296 296 297 297 297 297 297 297 297 297 297 297 297 296 296 295 295 293 291 290 289 289 289 288 288 288 287 287 287 287 288 288 288 288 288 288 288
328 329 322 317 320 316 315 321 320 321 324 322 323 323 321 325 329 331 332 329 328 330 328 326 328 329 328 325 321 317 316 318 319 315 312 310 308 308 306 304 303 302 301 300 299 298 296 296 296 296 296 296 296 297 297 296 296 297 297 297 297 296 295 294 294 293 292 290 290 289 289 289 288 288 287 287 287 287 287 287 288 288 288 288 288 288
328 328 322 318 320 317 314 319 321 319 319 322 325 323 324 330 330 328 330 331 332 332 330 330 328 326 325 326 324 319 320 321 319 316 313 310 309 307 305 304 303 302 301 300 299 298 296 296 296 296 296 296 296 297 297 296 296 296 296 296 296 295 294 294 293 292 291 290 290 290 289 289 288 288 287 288 288 287 287 288 288 288 288 288 288 288
327 327 325 318 317 318 316 319 324 321 318 322 322 319 324 330 329 328 328 329 331 332 332 332 329 326 324 326 326 323 324 324 319 316 314 311 308 306 304 304 302 301 301 299 299 298 297 296 296 295 296 296 296 296 296 296 295 295 295 295 295 294 294 293 292 292 291 291 290 290 290 289 289 288 288 288 288 287 288 288 288 288 288 288 288 288
325 325 327 319 315 318 320 321 323 321 319 321 322 321 323 323 323 326 326 326 331 333 333 331 328 328 326 323 323 323 324 323 319 318 317 310 307 306 304 304 302 301 301 299 299 298 297 296 295 295 295 295 296 296 296 295 295 295 294 294 294 294 293 293 292 292 291 291 291 290 290 289 289 289 288 288 287 287 288 288 288 288 288 288 288 288
324 326 330 323 317 320 324 322 318 318 319 319 320 322 322 321 323 327 326 325 326 328 332 331 327 327 324 320 320 320 321 320 317 319 318 313 308 307 304 303 302 301 300 299 299 298 296 295 294 294 294 294 295 295 295 295 294 294 294 293 293 293 293 292 292 292 291 291 290 290 289 289 289 288 288 287 287 288 288 288 288 288 288 288 288 287
326 329 331 326 320 319 321 320 318 319 320 319 321 322 321 321 323 327 328 326 324 325 327 328 328 326 320 318 321 319 319 319 317 317 317 314 310 307 305 304 302 301 301 300 299 297 296 295 294 293 293 293 293 294 294 294 294 293 293 293 293 292 292 292 291 291 291 290 290 290 289 289 288 288 287 287 288 288 288 288 288 288 288 288 287 287
325 328 328 326 322 319 318 320 320 320 320 319 322 323 321 320 321 324 328 327 326 327 326 326 328 324 317 318 320 318 317 319 317 315 315 315 311 307 306 305 303 302 301 300 299 297 295 294 293 292 292 292 292 293 293 293 293 293 293 292 292 292 291 291 291 290 290 290 289 289 289 288 288 287 287 287 288 288 288 288 288 288 288 288 287 287
323 327 329 329 328 325 323 323 321 319 318 321 323 321 319 319 320 322 325 324 324 326 326 327 327 324 320 319 317 317 316 316 316 316 315 315 313 308 306 305 303 302 301 300 299 297 296 294 293 292 292 292 292 292 292 293 292 292 292 292 292 291 291 291 290 290 290 289 289 288 288 288 287 287 287 288 288 288 288 288 288 288 288 288 287 287
324 327 327 328 330 329 328 327 323 319 318 320 322 320 318 320 321 321 323 324 323 324 325 325 325 324 322 318 317 318 317 314 317 317 315 314 312 308 306 305 303 302 301 300 299 298 296 294 292 292 292 291 291 292 292 292 292 291 291 291 291 291 291 290 290 290 289 289 288 288 288 287 287 287 288 288 288 288 288 288 288 288 287 287 287 287
328 327 324 326 328 327 327 327 324 321 319 320 321 320 319 319 320 321 322 324 324 325 324 323 323 324 323 320 320 321 319 317 318 318 316 314 311 308 307 305 303 302 301 299 298 298 296 295 293 292 292 291 291 291 291 291 291 291 291 291 291 291 290 290 289 289 289 288 288 288 287 287 287 287 288 288 288 288 288 288 288 288 287 287 287 287
329 326 323 325 326 324 325 326 323 320 321 321 320 320 319 319 320 321 322 322 324 326 325 323 323 324 322 322 323 323 320 318 318 316 315 313 310 307 306 305 304 303 301 300 299 298 297 296 294 292 291 291 291 291 291 291 291 291 291 290 290 290 290 289 289 289 288 288 288 287 287 287 287 288 288 288 288 288 288 288 288 288 287 287 287 287
327 327 324 324 324 324 324 324 322 320 320 320 320 319 319 318 319 320 321 320 322 324 324 323 325 325 321 321 322 321 319 319 317 314 312 311 309 307 306 306 305 303 301 300 299 298 297 296 294 293 291 291 290 290 290 290 290 290 290 290 290 290 289 289 289 288 288 288 287 287 287 287 287 287 288 288 288 288 288 288 288 287 287 287 287 287
324 326 325 323 324 324 324 323 322 321 321 321 320 319 318 318 318 318 319 319 320 321 321 322 324 323 321 323 325 321 318 316 315 312 311 312 310 307 306 306 304 303 301 300 299 298 297 296 294 292 292 291 290 290 289 290 290 290 290 290 289 289 289 289 288 288 287 287 287 287 287 287 287 287 288 288 288 288 288 288 288 287 287 287 287 287
320 323 324 322 323 324 323 322 323 323 324 323 322 320 318 318 318 317 318 318 319 320 319 320 322 321 320 325 326 320 316 315 315 314 312 311 309 308 306 305 304 303 302 300 300 299 298 297 295 292 292 291 290 290 290 289 289 289 289 289 289 289 289 288 288 288 287 287 287 286 286 287 287 287 287 288 288 288 288 288 287 287 287 287 287 286
318 322 323 322 323 324 323 322 323 322 322 322 322 322 320 319 318 317 318 318 318 320 320 320 321 320 319 322 322 319 318 316 315 315 312 309 308 307 306 305 304 303 302 301 300 300 298 298 296 293 292 292 291 290 290 290 289 289 289 289 289 288 288 288 288 287 287 286 286 286 286 286 287 287 287 287 288 288 287 287 287 287 287 287 287 286
319 321 322 322 323 324 323 324 323 322 322 322 323 322 321 320 320 318 318 317 317 318 319 320 320 318 320 322 321 320 321 318 315 314 312 309 307 306 306 306 304 303 303 302 301 300 300 298 296 295 293 292 292 291 291 290 290 289 289 289 288 288 288 288 287 287 286 286 286 286 286 286 286 286 287 287 287 287 287 287 287 287 287 287 287 286
319 320 320 321 323 324 323 323 323 323 324 324 324 324 322 320 320 320 319 317 316 316 317 318 319 318 321 323 321 320 319 317 315 313 311 310 307 306 305 305 305 304 303 302 302 301 300 298 297 296 295 294 293 292 291 291 290 289 289 289 288 288 288 287 287 287 286 286 286 286 286 286 286 286 286 286 286 286 286 287 287 287 287 287 287 287
317 318 318 318 320 322 321 321 323 325 324 324 324 323 321 320 320 321 320 318 317 317 316 317 317 317 319 320 319 319 317 315 314 313 311 309 307 306 306 305 304 304 303 302 302 301 299 298 297 297 296 295 293 292 291 291 290 289 289 289 288 288 288 287 287 286 286 286 286 286 286 286 286 286 286 285 285 285 286 286 286 286 287 287 287 287
318 317 317 317 319 319 319 321 325 324 322 322 320 315 314 319 321 320 322 320 318 318 317 316 316 315 317 320 320 318 315 313 312 312 310 309 307 305 305 305 304 303 303 302 301 300 299 298 297 297 296 295 294 292 292 291 290 290 289 289 288 288 288 287 287 286 286 286 286 286 286 286 286 285 285 285 285 285 285 285 286 286 287 287 286 286
319 318 317 318 319 319 321 322 322 322 322 323 321 314 313 320 322 321 322 320 318 318 317 316 317 315 316 319 319 315 313 311 312 312 310 308 307 305 305 305 304 302 301 300 299 299 298 298 298 297 296 295 294 293 292 291 290 290 289 288 288 288 287 287 287 287 286 286 286 286 286 286 286 285 285 285 285 285 285 285 285 286 286 286 286 286
317 317 317 319 319 318 321 322 322 323 323 321 321 317 314 318 320 319 321 320 318 319 318 317 317 317 317 317 314 312 313 313 314 314 311 308 305 306 308 307 302 299 299 298 298 298 297 297 298 297 296 296 294 293 293 291 290 290 289 288 288 287 287 287 287 287 287 286 286 286 286 286 286 285 285 285 285 285 285 285 285 286 286 286 286 286
314 315 315 318 319 318 320 322 322 324 322 320 320 313 308 314 319 317 319 320 317 315 315 316 315 316 317 314 311 313 315 315 316 317 313 309 306 307 310 308 299 295 296 298 299 298 298 297 297 297 296 295 294 293 292 291 291 290 289 288 288 287 287 287 287 287 287 287 287 286 286 286 286 285 285 285 285 285 285 285 285 285 285 286 286 286
312 314 314 316 319 318 319 320 321 322 320 318 317 310 305 310 316 318 321 321 313 309 309 314 315 315 315 311 310 314 317 316 319 316 307 304 304 302 303 304 299 295 295 297 298 299 298 297 297 296 295 295 294 293 292 292 291 290 289 289 288 287 288 288 288 288 288 287 287 286 286 286 286 286 285 285 285 285 285 285 285 285 285 285 285 285
312 313 314 316 318 318 319 320 320 321 319 317 314 309 306 310 316 321 320 314 308 307 307 314 318 314 311 309 310 314 311 306 308 306 299 300 302 298 294 294 293 293 294 296 297 297 297 296 296 295 295 295 295 293 292 292 291 290 289 289 288 288 289 289 289 288 288 287 287 287 286 286 286 286 286 286 286 285 285 285 285 285 284 284 284 284
313 313 313 315 317 317 318 319 319 320 317 312 307 304 306 313 319 318 310 303 305 308 308 313 317 310 306 308 309 308 302 296 297 300 298 299 300 297 293 292 291 292 293 294 296 296 296 295 295 295 295 295 295 294 293 292 291 290 289 288 289 290 291 290 289 288 288 288 287 287 287 286 286 286 286 286 285 285 285 285 285 284 284 284 283 283
313 314 313 314 315 316 317 317 320 320 312 306 304 305 308 315 315 311 305 301 303 307 308 310 311 306 305 308 304 298 296 295 296 297 297 296 296 295 293 292 292 291 291 292 293 294 295 295 294 295 295 294 295 295 294 293 291 290 289 290 291 292 291 290 289 289 288 288 287 287 287 286 286 286 286 286 285 285 285 285 284 284 283 283 282 282
315 315 314 315 316 316 318 317 316 313 306 302 306 310 310 311 309 309 311 307 302 303 306 308 306 303 305 305 299 294 295 296 296 295 295 296 295 294 292 290 289 289 289 290 292 293 294 294 293 293 294 294 294 294 294 294 292 291 291 292 293 292 291 290 289 289 288 288 288 287 287 287 286 286 286 286 285 285 285 284 284 283 283 282 282 281
314 311 313 315 313 312 314 313 308 304 301 301 304 307 305 304 303 305 310 310 305 303 304 305 304 302 301 299 296 295 295 295 294 294 295 295 293 293 292 289 288 288 289 290 291 291 293 293 292 292 292 292 293 294 293 294 293 292 293 294 293 292 292 291 290 289 289 288 288 288 287 287 286 286 286 286 285 285 285 284 283 283 282 281 281 280
307 307 311 314 309 306 307 305 303 303 303 303 303 302 300 300 299 301 305 306 305 302 300 301 303 302 298 296 297 296 295 294 294 293 293 292 292 291 290 289 288 288 289 289 290 291 292 292 291 291 291 291 292 292 293 293 293 293 294 294 293 293 293 292 291 290 290 289 289 288 288 287 287 286 286 286 285 285 285 284 284 283 282 281 280 280
303 304 310 312 310 310 309 306 303 303 304 304 303 300 299 298 297 299 301 301 300 299 298 299 301 300 298 298 299 297 294 293 294 293 291 291 291 292 291 289 287 288 289 290 290 290 291 291 290 290 290 291 291 291 292 293 293 293 293 293 293 292 292 292 291 291 290 290 289 289 288 287 287 287 286 286 285 285 285 284 284 283 282 281 280 279
305 306 309 309 307 306 304 300 297 297 298 300 301 301 301 299 297 295 296 296 296 296 296 297 298 298 298 298 297 296 294 293 294 294 292 291 291 292 290 287 286 287 289 290 290 291 291 291 291 290 291 292 292 292 292 292 292 292 292 291 291 291 290 290 290 290 290 289 289 288 288 287 287 286 286 285 285 284 284 284 283 283 282 282 281 280
305 307 308 306 303 300 298 295 295 297 299 298 298 300 301 301 298 294 293 294 295 296 296 295 295 296 297 296 295 297 296 293 293 294 293 292 293 292 289 286 286 288 289 290 291 291 292 292 292 292 292 292 291 291 291 291 291 291 291 290 290 290 289 289 289 289 288 288 288 287 287 287 286 286 285 285 284 284 283 283 282 282 282 282 281 280
304 306 305 304 304 303 301 298 298 303 306 302 299 299 300 298 296 294 293 295 296 296 296 296 294 293 294 292 293 298 299 294 292 294 295 294 293 290 287 286 287 288 288 289 290 291 291 292 292 292 291 290 289 289 289 289 289 289 289 289 289 289 289 289 288 288 288 288 287 287 287 286 286 286 285 285 284 284 283 282 282 281 281 280 279 278
304 305 303 305 307 306 303 299 298 303 308 304 300 300 298 296 295 295 294 295 296 295 296 297 296 294 293 291 289 294 298 296 292 293 296 294 289 288 287 288 288 288 288 289 289 289 290 290 290 290 290 289 288 288 288 288 288 288 288 288 288 288 288 288 288 287 287 287 287 286 286 285 285 284 284 284 283 283 282 282 281 280 280 279 278 277
Wind_Speed
3 3 2 4 7 8 8 9 9 8 6 4 3 2 4 4 5 4 3 5 5 4 6 8 8 9 9 9 10 8 8 9 9 8 8 8 8 9 9 9 9 8 7 13 18 17 15 14 15 17 16 17 18 18 18 18 20 22 22 22 22 22 22 24 25 25 25 24 26 28 28 28 27 26 26 27 26 27 27 26 25 24 24 22 22 21
3 4 6 8 9 8 8 9 9 7 6 6 4 4 4 3 5 5 3 3 3 3 6 5 5 9 9 9 9 5 7 10 12 12 12 11 10 9 10 10 8 6 7 11 15 16 17 15 16 18 19 19 20 20 20 21 21 22 23 22 21 19 20 22 24 24 24 24 26 28 29 29 28 26 27 27 26 26 26 25 23 23 22 21 22 22
2 4 8 11 8 6 6 7 7 7 7 7 4 2 4 4 4 5 3 2 0 3 4 5 5 8 10 9 9 7 9 11 14 16 15 13 12 10 10 10 8 8 8 9 11 15 18 17 18 20 20 21 22 21 21 23 23 22 23 23 21 20 21 22 23 24 25 27 27 28 29 29 28 27 26 27 26 26 25 24 23 23 23 23 25 26
3 5 10 11 7 5 7 7 5 5 4 4 4 3 4 4 2 3 5 3 2 2 2 5 6 7 9 8 9 10 10 9 10 13 13 11 12 13 13 12 12 13 12 10 9 12 17 18 19 21 21 22 24 22 22 24 24 24 24 24 24 23 23 23 24 26 28 28 28 28 28 27 27 28 27 28 28 27 27 27 27 26 27 28 29 29
7 7 6 7 8 8 7 7 6 5 3 3 4 5 4 4 5 6 4 3 3 4 2 3 6 6 7 8 10 8 5 7 8 9 10 10 10 10 10 10 12 13 13 13 11 11 16 19 19 21 22 23 25 24 24 26 26 25 26 26 26 26 26 25 25 27 28 28 29 29 29 28 29 30 29 31 31 30 31 31 31 31 30 30 30 29
9 8 2 4 6 8 7 7 6 7 4 4 4 7 8 7 7 7 3 4 4 6 3 2 3 6 4 5 9 5 2 6 7 8 12 12 9 8 9 10 9 9 10 11 12 13 16 18 19 21 22 23 25 24 25 26 26 26 26 27 28 28 27 26 25 26 26 26 28 29 31 31 32 30 30 33 34 34 34 34 33 32 31 30 30 29
5 7 6 5 6 7 8 7 6 7 6 3 5 6 8 8 7 7 3 2 1 5 3 3 1 7 6 4 8 7 6 9 7 7 12 12 9 9 9 9 10 10 9 9 10 13 16 19 20 21 23 24 25 25 24 24 25 25 25 26 27 28 28 27 26 27 27 27 28 29 31 33 34 32 31 33 35 35 35 34 34 32 31 29 29 28
4 8 8 8 7 7 7 5 6 7 7 4 5 4 6 6 6 6 3 2 3 3 4 2 2 6 9 6 8 8 10 12 10 10 12 10 8 8 7 8 10 11 11 10 10 12 15 19 21 22 23 24 25 25 23 22 23 23 24 23 25 26 27 27 27 28 28 28 29 31 33 33 34 35 35 35 36 35 35 35 33 32 31 29 28 28
3 8 9 10 7 6 6 5 6 9 6 5 5 5 6 6 5 3 4 1 1 2 5 3 2 4 8 5 4 4 6 10 12 14 13 10 9 8 7 8 8 9 10 11 11 12 16 20 21 22 23 23 25 24 23 22 22 22 22 22 23 25 26 28 29 29 28 29 31 34 35 34 34 36 37 36 36 35 35 35 33 32 31 30 28 27
2 6 7 8 7 6 4 2 4 8 6 4 3 6 6 4 4 5 4 3 3 2 5 5 3 3 7 4 3 1 3 8 11 12 11 10 10 9 8 7 7 8 8 9 10 13 18 20 21 21 23 23 24 24 23 23 23 22 22 23 25 26 28 30 29 28 27 30 33 36 37 37 36 36 37 36 36 35 35 35 34 32 31 30 29 27
1 1 1 3 4 5 5 2 1 4 6 5 6 6 6 5 5 4 3 4 2 4 6 9 10 7 6 4 4 4 5 7 7 7 7 6 8 9 8 8 9 8 8 8 8 12 18 20 21 22 23 24 24 24 24 24 24 24 25 27 28 28 29 30 27 26 26 29 34 37 38 40 39 38 38 37 36 35 35 35 34 32 31 29 28 27
4 1 1 1 2 4 6 4 3 3 3 6 5 5 3 4 5 4 4 4 1 5 6 10 11 9 8 6 3 5 5 5 6 6 7 6 8 10 9 9 9 8 8 9 8 10 15 18 21 22 23 25 25 25 25 26 26 27 28 29 30 29 29 28 26 25 26 28 34 38 39 40 40 40 40 39 38 36 36 36 34 32 31 29 28 26
3 3 3 1 1 4 6 4 3 6 4 5 5 6 3 2 3 3 2 0 3 6 5 5 6 6 9 8 6 9 10 7 7 6 6 8 9 10 10 9 9 8 9 9 9 9 12 15 19 23 24 25 26 27 27 27 27 28 30 31 30 29 28 27 26 26 27 29 34 38 38 39 39 39 39 39 38 37 36 35 34 32 31 29 27 25
3 5 1 2 3 3 8 7 3 1 2 5 6 6 5 3 1 3 3 2 4 5 4 2 4 3 5 5 10 15 14 9 6 5 6 8 10 10 10 9 8 9 9 9 9 9 9 14 19 22 24 25 26 27 28 28 28 30 30 31 31 29 27 27 27 27 28 31 35 37 38 38 38 37 37 37 37 36 34 33 32 31 30 28 27 25
5 6 4 8 4 6 11 9 6 6 5 5 5 6 5 5 4 4 4 3 4 4 4 1 3 4 3 3 7 9 8 5 2 3 4 5 5 6 7 7 8 9 9 8 9 9 10 16 20 21 23 25 26 28 29 28 29 30 31 31 31 30 28 28 28 29 30 34 37 37 37 37 37 36 36 35 35 34 33 32 31 30 28 27 26 24
6 7 6 7 3 9 13 6 6 8 3 3 2 5 3 5 5 3 3 4 2 2 3 2 3 5 4 4 5 4 5 4 4 4 2 4 3 6 7 7 8 8 8 8 8 8 11 17 20 21 23 24 26 28 29 29 30 31 31 31 31 31 30 29 30 31 33 36 38 37 37 36 35 35 35 35 34 33 32 31 30 29 27 26 25 24
4 5 3 1 2 5 9 5 5 5 4 2 2 4 4 3 5 2 3 1 2 3 4 3 4 5 3 7 7 5 4 4 4 5 4 4 4 7 7 7 8 8 8 9 9 9 12 17 20 21 23 24 26 28 29 30 31 32 32 32 32 31 31 31 32 34 36 38 38 36 36 35 35 35 35 35 34 32 31 29 28 28 26 25 24 23
5 2 3 2 1 3 2 4 2 0 4 6 4 6 2 2 1 2 1 3 2 4 4 3 6 5 2 6 4 4 4 8 8 7 5 4 5 8 8 8 8 8 8 8 9 10 13 18 20 22 24 26 27 29 30 31 31 31 32 32 33 33 33 34 34 36 38 38 37 36 35 35 35 35 35 35 34 32 31 30 28 27 26 25 24 22
4 2 3 1 2 3 2 4 3 3 2 5 4 5 4 2 1 2 2 2 1 4 5 2 6 6 6 6 1 5 8 12 11 8 6 7 9 9 8 8 8 7 8 8 9 9 12 18 22 23 25 26 28 30 30 31 31 31 32 33 33 34 34 35 36 37 38 38 37 36 35 35 35 35 35 34 33 32 32 30 29 27 26 25 23 21
3 4 3 1 1 1 1 2 5 2 1 2 1 3 2 2 4 4 3 3 3 3 4 3 3 4 6 7 7 10 12 14 12 9 9 12 12 10 9 9 9 9 10 9 10 10 11 18 23 25 27 28 29 31 31 32 31 32 33 33 34 34 34 35 36 37 37 37 37 36 36 36 35 35 34 34 34 33 32 30 29 27 26 24 23 21
2 3 3 2 2 1 2 4 9 10 7 3 3 5 3 1 2 1 2 2 4 3 3 4 6 5 3 5 9 12 12 13 11 10 11 12 11 10 10 10 10 10 10 10 10 10 12 17 21 24 26 28 29 31 32 32 32 33 33 34 35 35 36 36 36 37 37 36 37 37 37 36 36 35 35 34 34 33 32 30 29 27 25 24 23 21
3 3 3 2 1 4 5 6 7 10 9 8 7 9 8 5 4 2 4 2 3 3 4 3 7 8 3 3 6 9 11 11 10 10 11 10 11 11 11 11 11 11 11 11 10 9 11 16 20 23 26 28 29 31 31 32 32 33 34 34 35 36 37 37 37 37 37 37 37 37 37 37 36 36 36 35 34 33 32 30 28 27 26 25 23 21
3 3 3 3 4 5 6 5 2 2 4 4 3 5 7 7 7 6 6 4 1 3 3 2 6 8 2 1 3 5 7 7 8 9 8 8 9 10 10 10 10 9 9 9 8 9 12 17 21 23 26 28 29 30 31 31 32 33 34 34 35 36 37 37 37 37 37 37 37 37 37 37 37 37 36 36 35 33 32 30 29 27 26 25 23 21
3 3 3 1 2 2 4 5 5 4 4 2 2 4 6 7 6 5 4 3 2 4 4 2 7 7 1 1 2 2 3 2 1 5 8 7 6 8 10 10 10 9 8 8 8 9 13 18 20 22 24 26 27 29 30 31 32 33 33 35 36 36 37 37 38 38 38 38 38 37 37 38 38 38 37 36 35 34 32 31 29 28 26 25 24 22
3 4 4 2 2 3 3 3 3 2 1 3 4 6 8 7 5 2 1 2 4 7 7 5 10 8 1 3 3 3 4 3 3 3 5 7 6 7 8 8 8 9 9 10 9 9 12 15 17 21 24 26 27 29 31 31 32 33 35 36 36 37 37 38 38 38 39 39 38 38 38 39 39 39 38 37 36 34 33 31 30 28 27 25 24 23
6 5 6 6 7 8 7 5 4 3 3 2 4 7 11 13 12 8 2 4 9 6 9 9 12 6 2 4 5 4 3 1 5 6 4 6 7 7 7 8 8 9 10 12 12 11 11 12 15 20 23 25 28 30 31 33 33 34 35 36 37 38 38 38 38 39 39 39 39 39 39 40 40 40 39 37 36 35 33 32 30 29 28 26 25 23
3 4 9 12 12 13 12 6 6 9 7 7 9 11 13 15 14 9 5 9 8 3 6 15 13 10 9 4 5 7 3 5 7 5 5 6 6 7 8 9 9 9 10 11 11 10 11 12 15 20 24 26 28 30 32 33 34 35 35 36 37 38 39 39 39 39 40 40 40 40 41 41 41 40 39 38 37 35 34 33 31 30 28 27 25 24
4 4 11 15 15 16 16 8 10 14 13 14 14 13 14 14 14 13 14 15 7 5 11 16 9 14 19 10 8 9 6 6 8 8 8 7 6 7 7 8 9 9 9 10 11 12 14 15 15 19 23 25 27 28 30 32 33 35 36 37 38 38 39 40 39 40 40 40 40 41 41 42 41 40 39 38 37 36 34 33 32 30 29 27 25 24
4 6 10 13 15 17 18 12 11 13 12 12 14 15 16 16 17 20 22 19 10 8 18 15 10 17 21 10 10 11 9 11 12 10 7 5 6 7 8 9 10 10 11 13 14 15 16 15 13 16 21 23 25 28 29 30 32 33 34 36 37 39 40 40 40 41 41 41 41 42 41 41 40 40 39 38 38 37 35 34 33 31 30 28 26 24
3 6 7 10 13 17 19 14 10 10 8 8 11 15 17 19 23 24 22 19 14 15 24 19 13 19 16 7 10 12 10 9 6 4 5 7 8 9 10 11 11 12 13 14 15 14 13 12 11 15 19 21 24 28 29 30 32 34 34 36 38 39 40 41 41 41 41 42 42 41 41 41 40 40 39 39 39 38 37 35 34 32 31 29 27 25
2 4 3 5 7 13 17 13 8 9 9 9 10 14 18 21 21 18 16 15 15 19 25 20 15 18 11 6 7 7 4 3 3 6 8 9 10 10 11 11 12 13 13 14 14 13 12 11 11 15 19 23 27 29 30 31 31 33 34 36 39 40 40 41 41 41 42 42 41 40 40 40 40 40 40 40 39 39 38 37 35 34 32 31 29 27
3 2 2 4 5 11 14 10 7 7 6 7 11 19 22 19 13 11 13 15 16 19 20 15 14 17 9 6 4 3 6 8 9 10 10 8 10 12 13 13 13 13 13 13 13 12 12 12 13 16 22 26 28 30 31 32 32 33 36 38 40 40 40 41 42 41 41 40 39 39 40 40 40 40 40 40 40 40 39 37 36 35 34 32 30 29
5 4 2 4 6 13 12 7 8 4 3 6 15 23 23 16 11 11 13 16 16 16 14 13 16 17 7 6 7 6 8 10 10 10 9 9 10 11 13 13 13 12 13 13 13 14 14 14 17 22 27 29 32 35 36 36 35 36 38 37 37 38 39 40 40 40 39 38 39 40 40 40 40 41 41 41 41 40 39 38 38 37 36 33 31 30
4 5 4 4 5 10 7 6 7 5 9 10 9 12 16 18 18 18 17 18 17 15 14 14 16 14 6 8 11 10 10 10 10 11 12 10 10 12 12 12 12 13 13 12 13 13 13 16 21 26 29 31 34 35 35 35 35 34 33 32 33 35 37 38 38 38 37 38 39 39 39 40 41 41 42 41 40 40 40 40 40 39 36 34 32 31
7 6 4 3 2 4 2 6 4 9 10 7 2 1 9 14 16 18 19 20 19 18 18 18 19 16 9 8 9 10 11 11 9 9 9 8 10 12 13 12 12 12 11 10 11 11 12 16 20 23 26 29 31 31 31 33 33 31 31 32 34 35 36 37 36 35 36 37 38 38 39 40 41 41 41 40 40 40 41 41 41 40 37 35 34 33
9 7 4 3 3 2 2 5 9 6 4 5 3 1 1 3 6 9 13 18 20 18 18 19 22 21 13 8 8 8 7 5 3 2 3 7 9 10 11 11 10 9 9 10 11 12 15 20 23 25 26 28 29 30 32 34 34 32 32 33 35 35 36 35 34 34 36 37 37 38 40 41 41 40 40 40 41 41 41 42 42 40 39 37 36 34
9 9 6 5 5 5 5 8 7 5 9 11 7 4 5 6 8 9 9 14 16 16 17 18 20 20 14 8 7 5 4 4 2 4 3 5 7 7 6 6 7 8 9 11 15 18 22 25 26 26 25 26 29 32 34 34 34 33 33 33 34 34 34 34 35 36 37 37 38 39 40 41 41 41 40 41 41 42 42 43 42 41 40 39 38 36
8 8 8 8 6 5 7 8 5 5 11 11 6 6 7 6 8 10 7 9 8 9 14 16 18 18 13 8 6 5 6 5 5 6 4 4 5 4 3 2 5 8 11 14 16 18 20 22 22 22 23 25 29 32 32 33 34 33 32 32 33 33 32 34 37 38 38 38 39 40 40 41 41 42 42 42 43 44 44 43 42 42 42 41 40 39
6 5 6 7 4 4 6 7 6 8 8 4 3 4 2 3 7 8 4 7 4 1 5 11 15 16 11 9 7 7 7 6 7 5 4 4 4 5 5 4 4 7 10 12 13 13 15 16 17 18 21 24 26 29 30 31 33 32 31 31 31 31 32 36 39 39 39 39 39 39 40 41 42 42 42 43 44 44 44 43 43 43 42 42 41 39
5 3 5 7 6 6 8 7 5 5 4 3 5 4 2 2 7 8 3 6 3 4 4 5 9 8 7 9 8 7 7 7 6 4 3 5 5 4 5 5 5 6 8 9 8 10 13 15 16 18 20 22 24 26 28 30 31 31 30 30 30 31 35 39 40 38 38 38 37 38 39 40 41 42 43 43 44 43 43 43 42 42 42 42 40 38
4 3 4 7 10 10 11 9 5 4 4 4 5 5 3 4 5 6 6 3 1 4 5 3 5 5 8 9 7 5 4 3 3 4 4 6 7 5 6 8 9 10 11 10 10 11 13 14 15 17 18 19 21 24 26 29 30 29 28 28 29 33 38 39 37 35 35 36 36 37 39 40 41 42 42 43 42 42 42 42 42 41 42 41 40 39
4 3 2 6 9 7 8 7 5 4 3 3 3 2 3 4 3 5 4 2 3 4 3 1 5 5 6 6 4 4 3 2 4 5 5 6 7 6 6 9 11 11 11 11 11 13 14 14 13 14 15 16 19 22 25 27 28 27 26 27 30 35 37 34 32 33 34 34 35 36 38 39 40 40 41 41 40 40 40 40 40 41 40 39 39 39
7 6 3 6 6 2 3 6 4 4 2 4 5 2 2 3 3 3 2 1 2 2 2 2 2 4 6 5 5 5 5 4 5 6 6 6 6 6 6 7 8 9 9 11 11 13 14 14 13 13 14 15 17 20 23 25 26 24 24 27 30 32 30 29 30 30 31 32 33 35 36 37 38 38 39 39 39 39 40 39 39 39 38 38 38 38
5 5 4 5 4 3 5 6 3 2 1 1 3 3 3 2 3 4 4 1 1 2 1 1 1 2 5 7 7 6 6 5 5 5 6 5 5 5 5 6 8 9 9 10 12 13 14 14 14 14 14 15 17 18 21 23 23 22 24 26 27 26 25 26 26 26 27 29 31 32 33 35 36 36 37 38 38 38 38 38 37 37 37 37 37 37
3 3 3 3 1 2 4 3 1 1 2 2 1 2 0 2 1 3 4 3 2 3 2 3 2 2 4 7 7 5 4 5 5 5 5 5 5 5 5 6 7 9 10 11 12 12 13 14 15 15 14 15 16 17 19 20 21 22 22 22 20 20 21 22 22 23 25 26 28 29 31 31 33 34 35 36 36 37 37 37 36 36 36 36 36 37
0 0 2 3 1 1 1 1 1 1 2 2 1 1 1 1 1 2 3 3 2 2 2 3 4 4 5 6 6 5 4 5 5 4 4 5 5 4 5 6 7 10 11 12 13 12 12 13 14 15 15 15 15 16 17 18 19 19 18 16 16 17 17 18 19 21 23 24 26 27 28 29 30 32 33 34 36 37 37 37 37 37 37 37 37 38
2 1 2 3 3 3 1 1 1 1 3 3 2 2 2 1 1 1 3 2 2 3 3 3 5 5 5 5 6 6 5 6 6 5 4 5 5 5 5 6 7 10 12 13 14 14 14 15 15 15 15 15 15 16 16 17 17 16 14 12 11 12 13 14 16 18 20 22 23 24 26 28 29 30 32 33 34 35 36 36 37 37 37 38 38 38
1 2 2 2 3 2 0 1 1 2 4 4 3 2 3 1 2 3 3 3 4 5 5 4 4 5 5 4 6 7 6 5 6 6 5 4 5 5 5 6 9 11 11 13 15 15 15 15 16 15 15 15 15 15 16 16 17 17 14 11 9 8 9 11 13 15 17 19 20 22 24 26 27 28 30 31 33 34 35 36 37 38 39 41 41 41
3 4 3 3 3 2 1 2 1 2 4 5 5 5 5 4 3 3 3 4 6 6 5 5 4 3 5 5 6 8 7 5 5 6 6 5 4 5 6 8 10 12 12 13 15 14 14 14 15 15 14 13 13 14 14 14 15 16 15 12 10 9 9 9 10 12 14 16 17 19 21 22 24 26 27 29 31 32 34 35 36 38 40 40 39 38
4 4 3 3 4 2 3 6 7 4 2 6 8 8 8 6 5 5 3 4 5 5 6 6 5 5 5 5 6 7 7 5 5 6 6 5 4 5 7 8 9 10 10 11 11 12 12 12 12 13 12 10 9 9 10 10 11 11 11 11 11 11 11 11 11 12 14 15 17 18 19 21 22 24 25 27 28 30 31 32 33 35 37 37 35 35
4 5 5 5 4 4 5 9 8 4 2 6 9 10 9 6 6 6 5 5 5 5 6 7 6 5 4 4 4 6 7 6 5 6 5 4 3 5 6 7 8 8 8 9 10 11 11 11 11 11 10 8 6 7 7 7 7 6 7 8 8 10 11 12 14 15 16 17 18 19 19 21 22 22 24 25 26 27 28 30 31 32 33 33 33 32
Wind_Direction
116 114 165 190 211 211 203 201 206 208 197 207 217 215 214 224 273 267 253 247 169 158 238 223 228 250 250 253 249 225 199 210 228 233 227 213 203 197 195 195 187 182 168 158 159 161 163 166 163 161 162 156 150 148 147 148 147 142 143 146 139 135 140 141 138 137 137 136 134 130 126 123 121 123 124 121 121 121 122 123 125 124 122 122 119 117
118 168 216 220 217 207 203 210 217 223 229 244 244 256 268 243 261 272 267 260 181 174 261 258 252 264 259 256 258 218 185 214 220 219 223 214 207 203 196 195 180 158 147 150 157 160 163 165 165 163 161 158 152 148 149 147 145 141 140 144 140 136 140 142 143 143 143 145 143 137 130 126 124 124 125 123 122 123 123 123 123 123 123 121 118 116
189 228 235 231 223 206 224 229 214 219 226 233 225 215 257 257 274 293 307 314 195 186 260 285 274 266 263 258 257 225 201 220 217 211 217 209 203 204 195 188 170 154 157 162 163 164 167 167 166 164 160 162 158 152 152 150 145 142 142 143 142 144 145 146 150 152 149 145 143 140 135 133 129 125 125 125 124 125 124 123 122 122 122 121 117 116
206 245 235 225 216 204 239 256 221 209 224 214 182 163 235 252 262 285 297 302 279 229 253 295 289 267 266 264 256 238 219 229 229 219 223 214 206 205 196 187 174 168 170 170 170 168 169 171 170 167 163 163 161 156 156 153 150 148 148 148 148 150 153 154 155 154 149 143 140 139 136 136 132 126 126 125 123 125 124 122 122 122 121 120 117 115
213 228 217 191 199 206 222 245 213 191 248 255 192 185 218 239 221 229 273 320 328 326 332 332 311 276 254 251 255 257 235 240 242 227 230 232 221 205 191 189 180 174 172 169 171 172 172 175 174 170 167 166 163 161 160 158 157 155 155 155 155 156 158 160 159 154 150 145 140 136 133 132 129 125 127 125 121 122 122 121 121 120 120 119 116 114
231 230 217 154 195 209 209 222 201 176 212 276 238 205 212 224 229 238 296 17 7 321 312 59 319 282 262 241 254 285 285 243 238 221 226 227 217 196 185 186 180 174 174 170 169 171 172 175 175 172 170 168 166 166 164 164 164 162 161 160 161 162 163 164 164 160 157 154 148 143 139 134 130 126 125 124 122 121 121 121 120 120 120 118 116 114
221 202 205 196 193 199 206 223 216 174 165 250 248 205 208 219 232 245 266 27 280 269 288 91 162 274 285 258 250 260 257 252 246 233 233 226 212 203 191 182 175 172 172 171 168 169 172 174 174 174 174 172 170 168 166 167 170 168 166 165 165 167 167 167 166 162 160 157 154 152 147 140 136 130 125 126 125 123 123 122 122 121 120 118 116 114
168 170 191 191 180 187 198 218 220 167 144 231 246 170 170 196 216 226 193 176 218 255 319 4 131 271 281 261 241 235 243 259 259 246 243 230 216 210 195 182 177 175 171 167 168 171 175 177 177 176 174 175 173 169 168 168 169 170 169 168 168 167 166 165 163 161 160 159 157 153 146 140 137 132 128 128 127 126 127 125 124 123 121 120 117 115
156 167 182 178 176 190 198 216 197 155 149 240 230 134 125 150 159 134 115 138 310 4 306 292 111 269 273 262 250 226 225 253 254 245 243 229 212 203 193 184 176 173 171 168 169 172 175 178 178 175 173 174 172 168 168 168 168 170 170 169 167 165 164 162 160 158 159 162 159 152 145 139 135 132 130 130 129 130 130 128 126 125 123 121 119 117
189 184 180 165 177 197 195 222 173 160 182 216 142 89 68 72 76 71 83 77 27 333 247 227 166 248 269 245 212 204 208 237 245 246 244 222 203 195 186 179 170 167 168 168 168 169 172 174 173 172 171 172 171 169 168 168 168 169 169 166 163 162 160 158 156 157 159 162 159 153 147 140 136 134 133 133 132 133 133 130 129 128 126 124 121 119
290 248 182 152 174 176 144 91 63 175 176 138 90 60 39 22 32 40 45 72 37 277 226 203 192 204 269 266 194 206 215 216 228 250 252 212 186 189 185 179 174 169 165 164 161 160 164 166 167 168 169 170 170 169 169 168 169 169 166 162 158 158 159 158 159 161 161 162 159 155 150 145 141 140 138 137 136 136 136 133 131 130 128 126 125 123
340 353 238 223 162 119 98 78 9 3 111 108 90 80 62 350 14 20 4 53 220 255 221 208 198 192 236 259 238 254 250 214 207 227 235 209 192 193 189 183 177 169 163 159 155 155 157 158 162 166 167 169 169 170 169 169 170 169 167 163 158 159 163 164 165 166 165 166 162 157 153 149 147 146 145 143 141 141 139 136 135 134 132 130 128 127
309 239 219 321 292 135 114 98 12 356 29 94 108 111 118 291 356 1 311 165 227 253 246 212 187 200 237 250 261 268 269 252 225 219 215 200 197 196 189 183 175 166 162 160 159 161 161 162 165 167 168 170 171 171 170 170 171 171 170 168 163 162 167 168 168 169 168 170 166 158 154 152 150 150 149 147 146 145 143 141 140 138 136 135 133 131
271 295 241 170 284 190 157 159 176 246 181 149 141 140 158 173 217 256 243 252 257 262 276 194 159 234 272 261 241 244 258 262 236 233 227 201 195 193 185 175 167 166 165 165 165 165 167 169 169 170 171 172 172 172 172 172 172 172 172 172 167 165 168 170 170 171 171 172 168 161 157 156 154 153 152 151 149 148 146 145 143 142 141 139 137 134
212 284 208 183 214 189 185 189 167 144 160 180 153 137 157 160 180 221 205 220 255 272 294 282 159 201 216 248 240 241 271 295 299 279 245 206 189 168 157 155 159 170 171 167 167 167 169 171 172 174 175 175 174 173 173 174 174 173 172 174 170 166 169 171 171 172 172 171 168 164 161 160 159 158 156 154 152 150 149 148 146 145 144 142 139 137
197 258 225 189 166 170 188 194 125 115 147 224 122 116 178 185 183 226 210 188 196 290 283 220 215 221 209 260 268 259 292 318 336 321 203 174 150 133 147 162 168 175 174 169 167 166 169 172 174 177 178 179 177 175 175 175 175 174 173 174 172 169 170 173 173 173 173 171 168 166 165 164 163 161 158 156 155 153 152 151 149 148 147 145 142 139
181 273 271 120 63 175 190 179 142 156 177 169 137 170 201 183 166 210 276 340 66 274 257 197 246 289 304 275 251 215 251 280 297 289 215 183 158 157 174 178 177 180 176 174 171 168 170 172 177 180 181 182 179 177 178 177 177 177 174 173 172 170 171 173 173 173 171 170 168 168 168 167 166 164 161 159 158 156 155 154 153 151 149 147 144 141
161 253 299 110 138 250 208 121 95 26 140 133 182 199 149 56 102 126 260 342 20 263 266 205 236 265 262 268 262 162 219 256 254 242 226 209 184 188 194 185 185 182 173 174 171 168 172 174 179 183 184 185 182 180 179 178 179 179 177 175 173 171 172 173 173 172 171 170 169 169 170 170 168 166 165 163 161 160 158 157 156 154 151 148 145 142
154 192 298 84 173 267 7 108 104 6 93 134 190 189 126 124 202 126 172 225 197 254 285 247 230 234 209 222 220 166 207 235 239 222 211 215 204 202 199 187 186 176 169 177 175 174 177 179 182 183 183 184 183 182 180 179 179 179 179 178 176 174 173 172 172 171 171 171 171 171 172 172 171 169 169 167 165 163 162 160 158 156 153 149 148 146
164 197 254 323 225 246 16 133 167 193 334 45 106 164 125 140 173 166 177 170 162 225 280 276 242 241 220 200 184 195 207 218 222 208 210 220 210 201 196 186 185 183 182 184 182 183 182 182 184 183 182 182 182 182 180 179 180 179 178 178 176 174 172 172 173 171 171 173 172 173 173 173 173 173 173 171 168 166 165 163 161 158 155 153 151 150
146 211 221 285 318 188 187 201 187 183 180 156 148 174 186 115 122 182 213 153 145 183 230 268 273 268 243 196 187 196 207 212 211 203 213 223 210 200 196 188 187 188 189 188 184 185 182 180 181 180 180 181 180 180 180 179 180 179 178 178 176 174 173 173 174 174 173 174 174 175 175 176 176 176 175 173 171 169 167 165 163 161 159 156 155 154
181 197 170 170 234 205 222 242 215 195 185 175 178 184 183 165 141 181 244 208 153 196 190 215 273 265 235 210 201 197 204 210 208 207 218 219 206 203 198 190 191 188 187 190 184 181 177 174 175 175 177 179 178 179 179 179 180 179 179 179 177 175 175 175 175 176 176 175 176 177 177 178 178 178 176 174 172 171 168 167 165 164 162 159 158 158
143 118 129 169 211 215 243 279 281 194 166 156 181 180 176 182 172 180 225 218 149 237 200 143 279 273 254 244 237 216 220 220 209 208 221 224 207 200 195 189 191 188 183 184 181 177 175 173 173 174 175 177 178 178 179 179 180 180 180 179 178 177 177 177 177 177 177 177 178 179 179 179 179 178 177 175 174 173 171 169 168 167 166 163 161 159
88 127 146 189 288 312 314 324 359 35 82 109 208 186 182 204 197 185 204 175 174 229 181 141 267 265 283 321 287 290 292 287 224 206 216 227 214 193 192 188 183 180 175 175 177 176 172 171 172 174 176 177 179 179 179 179 180 180 180 180 180 179 178 179 179 179 179 179 179 180 180 179 179 178 177 176 176 175 173 172 171 170 170 167 164 161
182 180 139 126 275 320 326 316 337 353 133 195 222 201 198 207 201 206 129 111 246 224 158 185 253 248 265 327 328 348 0 4 331 284 225 217 210 194 189 182 175 174 171 174 175 172 173 173 175 179 180 180 179 179 179 180 181 181 181 181 181 180 180 180 180 180 180 180 180 180 180 180 180 179 179 179 178 178 176 175 174 173 173 172 168 164
178 175 155 175 214 229 233 223 198 178 165 217 222 190 199 205 197 202 193 206 240 216 153 207 246 251 318 322 304 315 359 307 279 286 259 218 200 187 178 175 176 175 177 178 176 176 179 179 181 183 184 183 182 181 180 181 181 181 181 182 182 182 181 181 182 181 181 181 181 181 182 182 181 181 182 182 181 180 179 179 178 177 176 175 172 169
139 184 188 194 208 222 235 228 157 146 153 205 213 194 200 207 198 196 214 222 222 159 193 227 237 256 266 250 254 263 233 232 252 253 250 228 196 187 182 179 179 177 180 179 174 176 179 183 189 188 187 185 183 183 182 182 182 181 181 182 183 184 183 182 182 182 182 183 183 184 184 184 184 184 185 185 184 183 183 182 182 180 179 178 177 174
111 203 207 207 215 225 236 225 159 161 181 199 203 198 201 204 196 196 217 223 183 129 243 239 208 243 254 222 212 238 216 226 241 226 229 224 195 190 177 170 175 174 173 174 177 184 187 189 192 189 187 186 183 184 184 183 183 183 183 182 183 184 184 183 183 183 184 185 185 187 187 186 186 187 187 187 186 186 186 186 185 183 182 182 181 180
139 209 212 210 223 234 239 226 173 173 193 195 195 201 202 199 199 205 218 222 186 185 248 244 182 226 248 221 206 222 202 214 226 213 207 187 174 179 166 171 182 176 177 184 189 193 194 193 191 187 188 185 182 184 184 184 185 184 184 184 184 185 186 185 184 185 186 187 188 190 189 188 188 189 189 189 188 189 189 189 188 186 186 186 185 185
169 214 204 199 221 237 240 231 189 179 198 199 198 205 205 203 206 210 217 222 209 219 244 245 224 240 249 203 204 222 208 213 214 165 165 171 176 181 176 183 188 183 187 192 195 198 196 192 187 184 186 185 185 186 185 186 187 186 186 186 186 187 187 187 186 187 188 190 191 192 190 189 190 190 191 191 191 192 192 192 190 189 189 189 188 188
210 214 164 158 214 242 244 237 205 191 211 222 220 218 217 216 214 213 217 221 219 229 241 248 254 259 250 171 203 225 181 158 148 169 191 192 184 181 184 193 193 191 195 196 195 196 192 189 184 182 187 191 190 189 188 190 189 188 188 189 189 189 189 188 189 189 191 192 192 192 191 190 191 192 193 194 194 195 195 194 193 192 193 193 191 191
191 214 77 116 202 245 244 225 198 199 220 242 245 236 228 221 214 211 216 218 216 226 239 245 252 257 241 159 179 185 155 178 197 198 203 202 190 184 189 197 195 194 197 195 194 192 189 190 187 188 193 195 192 192 192 192 190 190 192 192 191 190 189 190 191 192 193 194 193 193 192 192 192 193 195 196 197 198 198 196 196 196 196 196 195 195
165 178 164 150 204 248 246 188 157 173 216 239 242 239 233 223 211 213 224 226 218 219 229 229 237 249 237 166 196 204 187 200 205 200 204 203 196 194 197 199 194 194 197 194 193 192 190 193 195 196 197 195 195 196 195 193 193 195 196 194 191 190 189 191 193 194 194 194 194 195 194 193 194 195 197 199 200 200 199 198 199 200 200 199 199 200
160 175 195 166 200 248 242 124 120 194 227 234 235 229 227 222 217 218 225 227 218 215 225 234 243 249 215 178 205 208 199 206 206 205 208 196 185 194 202 202 196 196 198 196 194 194 193 196 200 202 201 200 199 198 196 196 196 197 195 193 191 191 191 193 195 195 195 195 196 197 195 195 197 198 200 201 201 202 201 202 204 204 203 203 203 204
175 188 199 157 185 247 155 111 174 223 228 243 311 193 218 218 215 220 230 233 225 220 227 238 248 248 224 200 213 208 205 214 214 214 212 189 181 189 195 199 199 196 196 196 198 200 199 199 201 202 203 202 200 196 194 196 197 195 194 193 193 194 194 196 196 196 197 198 198 198 197 198 200 201 202 202 203 204 205 206 206 206 206 207 208 210
179 192 197 171 186 206 121 181 220 247 281 277 297 326 194 157 172 207 235 241 233 224 225 232 241 244 235 217 223 222 209 203 213 247 205 174 182 191 192 196 195 190 192 193 197 203 203 202 202 201 201 198 194 192 193 195 194 192 192 193 194 196 197 197 197 198 200 201 200 200 200 201 202 202 203 204 204 206 208 209 209 209 210 211 213 214
182 190 198 202 200 194 210 226 238 309 296 268 248 207 177 156 163 179 221 247 235 220 221 229 238 243 236 217 219 211 150 143 214 283 256 184 186 191 190 185 176 180 195 199 203 209 207 205 204 201 197 193 191 193 194 194 192 191 191 192 194 196 196 196 199 202 203 204 203 203 204 204 204 205 206 206 206 208 210 212 212 212 213 214 215 216
195 194 195 204 205 196 220 237 237 257 262 256 235 201 186 174 170 169 202 251 239 211 216 223 232 237 227 203 195 155 125 157 219 248 246 203 171 141 110 115 159 182 193 193 194 198 198 198 198 197 193 190 191 194 194 192 190 189 189 191 193 194 195 198 203 205 205 206 207 207 207 207 207 208 208 208 210 211 213 214 215 216 216 217 218 220
206 205 193 202 206 191 213 231 227 232 247 241 204 215 204 157 141 134 187 254 264 304 244 225 230 233 210 180 173 147 143 197 224 229 219 194 162 132 123 122 144 165 172 172 171 171 176 182 185 186 187 187 189 192 192 190 188 187 188 191 192 193 196 203 208 209 208 210 210 210 211 211 211 211 211 212 214 215 216 217 219 219 220 220 222 223
196 197 189 205 213 203 212 230 233 239 257 223 200 228 270 152 130 124 188 253 274 329 303 224 219 222 175 160 165 158 172 208 217 213 186 155 130 105 119 133 134 128 123 125 138 153 163 169 171 174 179 185 188 189 189 188 187 187 190 193 192 195 203 209 212 212 212 213 213 213 214 214 214 214 215 217 218 219 219 221 222 222 223 223 224 225
195 195 190 209 218 215 217 230 244 249 247 217 206 214 187 137 136 166 208 225 208 276 285 195 171 170 154 156 164 170 198 215 162 143 126 116 106 88 90 97 93 93 99 110 129 144 150 158 167 172 177 184 186 185 187 187 186 188 192 191 193 203 212 215 215 215 216 217 217 217 218 218 218 219 220 222 222 222 222 223 224 225 226 226 225 226
183 181 189 211 219 223 222 227 248 262 235 156 157 207 174 147 172 198 197 168 182 235 302 82 141 146 139 134 129 141 152 96 97 102 91 95 104 102 94 90 88 92 104 117 129 141 145 148 157 165 172 180 184 185 186 186 186 189 190 192 202 214 219 218 218 219 219 219 220 220 221 221 221 222 223 224 224 223 224 226 227 229 229 228 227 227
171 165 189 207 199 185 210 219 232 248 220 125 119 138 173 183 193 164 121 147 209 194 24 45 122 142 135 116 106 126 124 90 78 87 84 87 99 103 105 107 108 111 117 123 134 146 148 146 150 159 165 172 180 184 187 187 187 188 190 200 214 222 222 220 221 222 221 221 222 223 223 224 225 225 225 225 225 225 227 228 228 229 230 229 228 228
177 172 194 204 178 154 193 215 217 210 235 138 139 164 178 179 174 148 131 129 174 163 140 68 81 155 151 134 128 131 117 97 96 99 93 93 106 115 115 115 122 128 132 135 143 152 154 151 152 157 162 169 176 181 186 188 187 187 196 211 222 224 221 222 223 222 222 223 224 225 226 227 227 227 227 227 227 227 228 229 229 229 229 229 228 228
184 166 165 165 143 152 182 203 194 175 260 282 183 186 273 27 61 150 141 122 160 182 149 117 127 142 131 127 126 118 111 117 121 114 116 127 133 132 127 129 138 141 140 141 146 155 160 156 154 156 161 169 178 181 186 191 191 192 202 216 222 221 222 223 221 221 223 225 226 227 228 228 228 228 229 229 228 228 228 229 228 229 229 228 228 228
174 145 98 98 125 167 95 81 129 207 260 260 226 205 227 19 14 162 127 106 163 170 102 115 147 145 131 131 124 108 120 137 129 118 129 137 136 130 127 134 142 142 143 147 151 157 160 155 155 160 161 168 180 185 188 194 197 199 208 217 219 221 225 224 221 223 225 226 228 229 228 228 228 229 229 230 230 231 231 231 230 230 229 228 228 228
299 272 68 92 163 182 145 143 188 233 262 272 320 320 230 214 7 74 101 96 128 118 89 100 131 134 132 131 126 127 141 144 134 131 134 135 142 149 143 141 148 150 153 156 157 159 161 158 158 163 167 173 182 187 190 195 200 205 211 216 219 223 225 223 223 225 226 226 228 227 226 227 228 228 227 228 229 230 231 232 232 231 229 228 228 228
220 148 117 121 155 150 128 252 265 319 296 282 307 301 250 227 45 53 67 87 100 93 77 77 109 127 132 130 133 137 145 151 145 142 147 150 151 153 154 157 159 158 158 161 162 163 166 166 166 172 178 183 185 189 193 197 202 208 212 216 220 222 222 224 226 227 228 228 227 226 227 227 228 228 228 228 228 229 229 230 231 230 231 233 232 230
134 141 154 128 111 87 320 248 160 25 317 284 269 258 246 213 142 101 81 93 101 96 83 68 62 97 126 140 144 137 143 168 166 147 148 159 158 165 176 173 166 161 159 163 168 172 174 176 178 182 187 190 191 194 198 202 207 213 217 222 227 229 229 230 231 232 235 235 234 233 233 232 232 233 233 233 232 232 231 232 233 234 236 238 237 236
133 155 162 122 131 187 212 187 170 151 208 237 231 230 231 208 155 139 130 118 119 122 114 93 62 56 91 122 144 143 145 166 167 149 153 167 168 172 174 168 161 161 162 164 172 183 188 190 193 195 194 192 193 199 205 211 218 224 230 235 240 243 243 243 243 243 244 244 244 243 242 241 241 240 239 239 239 238 238 238 238 239 242 243 243 243
160 176 172 152 174 213 186 174 176 163 168 208 211 211 213 196 159 159 166 152 146 150 139 124 109 96 88 84 114 137 145 157 160 150 150 163 166 158 158 161 162 165 172 177 184 193 199 200 202 205 203 199 200 206 209 215 224 232 240 244 246 246 246 245 244 245 245 246 246 247 246 246 246 245 244 245 245 245 244 244 244 244 245 247 249 249